Location: Janeiro
(34.9957°N, 76.7652°W)
Time: 01:33:12
(UTC+00:00)

Cosmos 1943 Rocket - Pass Details

Date: 14 December 2019
Orbit: 812 x 843 km, 71.0° (Epoch: 27 January)

Event Time Altitude Azimuth Distance (km) Brightness Sun altitude
Rises 23:29:42 0° 343° (NNW) 3,392 5.4 -18.5°
Reaches altitude 10° 23:32:13 10° 347° (NNW) 2,450 4.6 -19.0°
Maximum altitude 23:37:45 58° 66° (ENE) 965 2.1 -20.1°
Drops below altitude 10° 23:43:11 10° 145° (SE) 2,415 4.4 -21.2°
Sets 23:45:38 0° 150° (SSE) 3,340 5.1 -21.7°
